| time (UTC) | temp F | wind direction | speed knots | gust knots | rain 1hr in | rain 24hr in | rain mn in | humidity % | barometer mb |
| 20260903222044 | 89 | 149 | 0.9 | 4.3 | 0.00 | 0.00 | 0.00 | 72 | 1014.0 |
| 20260903221023 | 90 | 152 | 0.9 | 4.3 | 0.00 | 0.00 | 0.00 | 72 | 1014.0 |
| 20260903220002 | 90 | 185 | 0.9 | 5.2 | 0.00 | 0.00 | 0.00 | 71 | 1014.1 |
| 20260903215023 | 90 | 172 | 0.9 | 4.3 | 0.00 | 0.00 | 0.00 | 71 | 1014.2 |
| 20260903214002 | 90 | 153 | 1.7 | 4.3 | 0.00 | 0.00 | 0.00 | 70 | 1014.2 |
| 20260903213044 | 91 | 162 | 1.7 | 5.2 | 0.00 | 0.00 | 0.00 | 69 | 1014.1 |
| 20260903212002 | 91 | 153 | 1.7 | 5.2 | 0.00 | 0.00 | 0.00 | 69 | 1014.1 |
| 20260903211023 | 91 | 154 | 0.9 | 3.5 | 0.00 | 0.00 | 0.00 | 68 | 1014.1 |
| 20260903210023 | 91 | 169 | 0.9 | 4.3 | 0.00 | 0.00 | 0.00 | 65 | 1014.2 |
| 20260903205002 | 92 | 162 | 0.9 | 6.1 | 0.00 | 0.00 | 0.00 | 66 | 1014.1 |
| 20260903204002 | 92 | 140 | 0.9 | 4.3 | 0.00 | 0.00 | 0.00 | 64 | 1014.2 |
| 20260903203002 | 92 | 146 | 1.7 | 7.0 | 0.00 | 0.00 | 0.00 | 64 | 1014.3 |
| 20260903202002 | 92 | 155 | 0.9 | 7.0 | 0.00 | 0.00 | 0.00 | 65 | 1014.4 |
| 20260903201023 | 92 | 142 | 0.9 | 5.2 | 0.00 | 0.00 | 0.00 | 66 | 1014.5 |
| 20260903200023 | 93 | 137 | 1.7 | 6.1 | 0.00 | 0.00 | 0.00 | 65 | 1014.7 |
| 20260903195023 | 93 | 155 | 1.7 | 7.0 | 0.00 | 0.00 | 0.00 | 65 | 1014.8 |
| 20260903194023 | 93 | 135 | 1.7 | 6.1 | 0.00 | 0.00 | 0.00 | 64 | 1015.1 |
| 20260903193105 | 93 | 149 | 0.9 | 3.5 | 0.00 | 0.00 | 0.00 | 66 | 1015.1 |
| 20260903192002 | 92 | 161 | 1.7 | 5.2 | 0.00 | 0.00 | 0.00 | 65 | 1015.3 |
| 20260903191002 | 92 | 170 | 1.7 | 5.2 | 0.00 | 0.00 | 0.00 | 64 | 1015.4 |
| 20260903190002 | 92 | 156 | 1.7 | 6.1 | 0.00 | 0.00 | 0.00 | 67 | 1015.6 |
| 20260903185002 | 91 | 157 | 0.9 | 3.5 | 0.00 | 0.00 | 0.00 | 68 | 1015.9 |
| 20260903184002 | 90 | 179 | 0.9 | 2.6 | 0.00 | 0.00 | 0.00 | 71 | 1016.1 |
| 20260903183044 | 90 | 188 | 0.9 | 2.6 | 0.00 | 0.00 | 0.00 | 69 | 1016.0 |
| 20260903182023 | 89 | 157 | 0.9 | 3.5 | 0.00 | 0.00 | 0.00 | 70 | 1015.8 |
| 20260903181002 | 88 | 158 | 0.9 | 3.5 | 0.00 | 0.00 | 0.00 | 73 | 1016.1 |
| 20260903180002 | 87 | 140 | 0.0 | 2.6 | 0.00 | 0.00 | 0.00 | 72 | 1016.6 |
| 20260903175002 | 87 | 159 | 0.9 | 5.2 | 0.00 | 0.00 | 0.00 | 74 | 1016.5 |
| 20260903174002 | 87 | 171 | 0.0 | 3.5 | 0.00 | 0.00 | 0.00 | 75 | 1016.7 |
| 20260903173002 | 87 | 173 | 0.0 | 1.7 | 0.00 | 0.00 | 0.00 | 73 | 1016.6 |
| 20260903172023 | 87 | 199 | 0.9 | 2.6 | 0.00 | 0.00 | 0.00 | 71 | 1017.1 |
| 20260903171023 | 87 | 314 | 0.0 | 3.5 | 0.00 | 0.00 | 0.00 | 73 | 1017.4 |
| 20260903170044 | 87 | 163 | 0.9 | 4.3 | 0.00 | 0.00 | 0.00 | 74 | 1017.5 |
| 20260903165002 | 86 | 360 | 0.9 | 3.5 | 0.00 | 0.00 | 0.00 | 79 | 1017.6 |
| 20260903164002 | 85 | 325 | 0.9 | 3.5 | 0.00 | 0.00 | 0.00 | 77 | 1018.0 |
| 20260903163044 | 84 | 342 | 0.9 | 3.5 | 0.00 | 0.00 | 0.00 | 79 | 1017.9 |
| 20260903162044 | 83 | 147 | 0.0 | 2.6 | 0.00 | 0.00 | 0.00 | 81 | 1018.0 |
| 20260903161002 | 82 | 178 | 0.9 | 1.7 | 0.00 | 0.00 | 0.00 | 84 | 1017.9 |
| 20260903160003 | 81 | 352 | 0.9 | 4.3 | 0.00 | 0.00 | 0.00 | 85 | 1018.3 |
| 20260903155002 | 81 | 346 | 1.7 | 4.3 | 0.00 | 0.00 | 0.00 | 84 | 1018.9 |
| 20260903154044 | 81 | 20 | 0.0 | 2.6 | 0.00 | 0.00 | 0.00 | 84 | 1018.8 |
| 20260903153002 | 81 | 87 | 0.0 | 0.0 | 0.00 | 0.00 | 0.00 | 84 | 1018.1 |
| 20260903152044 | 81 | 161 | 0.0 | 1.7 | 0.00 | 0.00 | 0.00 | 84 | 1018.0 |
| 20260903151045 | 80 | 165 | 0.9 | 4.3 | 0.00 | 0.00 | 0.00 | 86 | 1018.1 |
| 20260903150105 | 80 | 166 | 0.9 | 3.5 | 0.00 | 0.00 | 0.00 | 88 | 1018.1 |
| 20260903145023 | 79 | 158 | 0.0 | 3.5 | 0.00 | 0.00 | 0.00 | 89 | 1017.9 |
| 20260903144002 | 78 | 138 | 0.0 | 1.7 | 0.00 | 0.00 | 0.00 | 90 | 1018.1 |
| 20260903143002 | 78 | 101 | 0.0 | 1.7 | 0.00 | 0.00 | 0.00 | 90 | 1018.1 |
| 20260903142023 | 78 | 102 | 0.0 | 1.7 | 0.00 | 0.00 | 0.00 | 91 | 1018.0 |
| 20260903141023 | 77 | 126 | 0.0 | 2.6 | 0.00 | 0.00 | 0.00 | 93 | 1017.8 |
| 20260903140002 | 76 | 166 | 0.9 | 3.5 | 0.00 | 0.00 | 0.00 | 94 | 1017.7 |
| 20260903135002 | 76 | 129 | 0.9 | 3.5 | 0.00 | 0.00 | 0.00 | 95 | 1017.6 |
| 20260903134024 | 75 | 168 | 0.9 | 4.3 | 0.00 | 0.00 | 0.00 | 95 | 1017.8 |
| 20260903133003 | 75 | 159 | 0.9 | 2.6 | 0.00 | 0.00 | 0.00 | 96 | 1017.8 |
| 20260903132045 | 75 | 123 | 0.9 | 1.7 | 0.00 | 0.00 | 0.00 | 96 | 1018.0 |
| 20260903131106 | 74 | 102 | 0.9 | 5.2 | 0.00 | 0.00 | 0.00 | 96 | 1018.1 |
| 20260903130024 | 74 | 150 | 0.0 | 1.7 | 0.00 | 0.00 | 0.00 | 97 | 1018.5 |
| 20260903125002 | 74 | 151 | 0.0 | 1.7 | 0.00 | 0.00 | 0.00 | 97 | 1019.0 |
| 20260903124024 | 74 | 153 | 0.0 | 1.7 | 0.00 | 0.00 | 0.00 | 97 | 1019.0 |
| 20260903123003 | 74 | 150 | 0.0 | 1.7 | 0.00 | 0.00 | 0.00 | 97 | 1019.0 |
| 20260903122023 | 74 | 257 | 0.9 | 2.6 | 0.00 | 0.00 | 0.00 | 96 | 1019.0 |
| 20260903121106 | 73 | 315 | 0.9 | 3.5 | 0.00 | 0.00 | 0.00 | 96 | 1019.1 |
| 20260903120106 | 73 | 332 | 0.9 | 4.3 | 0.00 | 0.00 | 0.00 | 96 | 1019.2 |
| 20260903115003 | 73 | 336 | 0.0 | 3.5 | 0.00 | 0.00 | 0.00 | 97 | 1019.0 |
| 20260903114024 | 73 | 333 | 0.9 | 4.3 | 0.00 | 0.00 | 0.00 | 97 | 1019.1 |
| 20260903113002 | 73 | 352 | 1.7 | 5.2 | 0.00 | 0.00 | 0.00 | 96 | 1018.9 |
| 20260903112003 | 73 | 343 | 0.9 | 7.0 | 0.00 | 0.00 | 0.00 | 96 | 1018.8 |
| 20260903111024 | 73 | 337 | 0.9 | 3.5 | 0.00 | 0.00 | 0.00 | 96 | 1018.2 |
| 20260903110003 | 73 | 318 | 0.9 | 3.5 | 0.00 | 0.00 | 0.00 | 96 | 1018.0 |
| 20260903105024 | 73 | 332 | 0.9 | 2.6 | 0.00 | 0.00 | 0.00 | 96 | 1017.9 |
| 20260903104024 | 73 | 30 | 0.0 | 2.6 | 0.00 | 0.00 | 0.00 | 96 | 1017.8 |
| 20260903103024 | 72 | 126 | 0.0 | 1.7 | 0.00 | 0.00 | 0.00 | 96 | 1016.9 |
| 20260903102024 | 72 | 0 | 0.0 | 0.0 | 0.00 | 0.00 | 0.00 | 95 | 1017.0 |
| 20260903101024 | 72 | 0 | 0.0 | 0.0 | 0.00 | 0.00 | 0.00 | 95 | 1016.8 |
| 20260903100024 | 72 | 0 | 0.0 | 0.0 | 0.00 | 0.00 | 0.00 | 95 | 1016.8 |
| 20260903095003 | 72 | 0 | 0.0 | 0.0 | 0.00 | 0.00 | 0.00 | 95 | 1016.9 |
| 20260903094002 | 72 | 0 | 0.0 | 0.0 | 0.00 | 0.00 | 0.00 | 95 | 1017.0 |
| 20260903093023 | 72 | 0 | 0.0 | 0.0 | 0.00 | 0.00 | 0.00 | 95 | 1016.9 |
| 20260903092105 | 72 | 0 | 0.0 | 0.0 | 0.00 | 0.00 | 0.00 | 95 | 1017.0 |
| 20260903091045 | 72 | 0 | 0.0 | 0.0 | 0.00 | 0.00 | 0.00 | 95 | 1017.0 |
| 20260903090023 | 72 | 0 | 0.0 | 0.0 | 0.00 | 0.00 | 0.00 | 95 | 1017.0 |
| 20260903085023 | 72 | 0 | 0.0 | 0.0 | 0.00 | 0.00 | 0.00 | 95 | 1017.0 |
| 20260903084002 | 72 | 126 | 0.0 | 0.9 | 0.00 | 0.00 | 0.00 | 95 | 1016.9 |
| 20260903083002 | 73 | 126 | 0.0 | 0.9 | 0.00 | 0.00 | 0.00 | 95 | 1016.7 |
| 20260903082002 | 73 | 126 | 0.0 | 0.9 | 0.00 | 0.00 | 0.00 | 95 | 1017.1 |
| 20260903081002 | 73 | 126 | 0.0 | 0.9 | 0.00 | 0.00 | 0.00 | 95 | 1017.1 |
| 20260903080002 | 73 | 126 | 0.0 | 0.9 | 0.00 | 0.00 | 0.00 | 95 | 1017.0 |
| 20260903075003 | 73 | 0 | 0.0 | 0.0 | 0.00 | 0.00 | 0.00 | 95 | 1016.9 |
| 20260903074002 | 73 | 126 | 0.0 | 0.9 | 0.00 | 0.00 | 0.00 | 95 | 1016.9 |
| 20260903073002 | 73 | 126 | 0.0 | 1.7 | 0.00 | 0.00 | 0.00 | 95 | 1016.8 |
| 20260903072023 | 73 | 126 | 0.9 | 1.7 | 0.00 | 0.00 | 0.00 | 95 | 1016.7 |
| 20260903071044 | 73 | 121 | 0.9 | 2.6 | 0.00 | 0.00 | 0.00 | 94 | 1016.7 |
| 20260903070023 | 73 | 106 | 0.0 | 2.6 | 0.00 | 0.00 | 0.00 | 94 | 1016.5 |
| 20260903065023 | 73 | 79 | 0.9 | 2.6 | 0.00 | 0.00 | 0.00 | 94 | 1016.6 |
| 20260903064002 | 73 | 85 | 0.9 | 3.5 | 0.00 | 0.00 | 0.00 | 94 | 1016.6 |
| 20260903063023 | 73 | 108 | 0.9 | 4.3 | 0.00 | 0.00 | 0.00 | 94 | 1016.6 |
| 20260903062002 | 73 | 113 | 0.9 | 2.6 | 0.00 | 0.00 | 0.00 | 94 | 1016.6 |
| 20260903061023 | 73 | 101 | 0.9 | 5.2 | 0.00 | 0.00 | 0.00 | 94 | 1016.6 |
| 20260903060002 | 73 | 111 | 0.9 | 3.5 | 0.00 | 0.00 | 0.00 | 94 | 1016.7 |
| 20260903055002 | 73 | 98 | 0.0 | 1.7 | 0.00 | 0.00 | 0.00 | 94 | 1017.0 |
| 20260903054002 | 73 | 98 | 0.9 | 2.6 | 0.00 | 0.00 | 0.00 | 94 | 1017.1 |
| 20260903053002 | 74 | 100 | 0.9 | 3.5 | 0.00 | 0.00 | 0.00 | 94 | 1017.4 |
| 20260903052045 | 74 | 110 | 0.9 | 2.6 | 0.00 | 0.00 | 0.00 | 94 | 1017.4 |
| 20260903051023 | 74 | 114 | 0.0 | 1.7 | 0.00 | 0.00 | 0.00 | 94 | 1017.5 |
| 20260903050002 | 74 | 116 | 0.9 | 2.6 | 0.00 | 0.00 | 0.00 | 94 | 1017.2 |
| 20260903045003 | 74 | 118 | 0.9 | 2.6 | 0.00 | 0.00 | 0.00 | 94 | 1017.5 |
| 20260903044002 | 74 | 119 | 0.9 | 1.7 | 0.00 | 0.00 | 0.00 | 93 | 1017.6 |
| 20260903043023 | 74 | 119 | 0.9 | 1.7 | 0.00 | 0.00 | 0.00 | 93 | 1017.7 |
| 20260903042003 | 74 | 119 | 0.0 | 0.9 | 0.00 | 0.00 | 0.00 | 93 | 1017.8 |
| 20260903041024 | 74 | 119 | 0.0 | 0.9 | 0.00 | 0.00 | 0.00 | 93 | 1017.7 |
| 20260903040045 | 74 | 120 | 0.9 | 2.6 | 0.00 | 0.00 | 0.00 | 93 | 1017.6 |
| 20260903035003 | 74 | 97 | 0.0 | 2.6 | 0.00 | 0.00 | 0.00 | 93 | 1017.6 |
| 20260903034024 | 74 | 88 | 0.0 | 3.5 | 0.00 | 0.00 | 0.00 | 93 | 1017.5 |
| 20260903033024 | 74 | 218 | 0.0 | 0.9 | 0.00 | 0.00 | 0.00 | 92 | 1017.8 |
| 20260903032003 | 74 | 0 | 0.0 | 0.0 | 0.00 | 0.00 | 0.00 | 92 | 1017.7 |
| 20260903031003 | 74 | 0 | 0.0 | 0.0 | 0.00 | 0.00 | 0.00 | 91 | 1017.6 |
| 20260903030024 | 74 | 0 | 0.0 | 0.0 | 0.00 | 0.00 | 0.00 | 91 | 1017.5 |
| 20260903025024 | 75 | 0 | 0.0 | 0.0 | 0.00 | 0.00 | 0.00 | 91 | 1017.6 |
| 20260903024003 | 75 | 0 | 0.0 | 0.0 | 0.00 | 0.00 | 0.00 | 90 | 1017.5 |
| 20260903023045 | 75 | 0 | 0.0 | 0.0 | 0.00 | 0.00 | 0.00 | 90 | 1017.1 |
| 20260903022003 | 75 | 0 | 0.0 | 0.0 | 0.00 | 0.00 | 0.00 | 90 | 1017.1 |
| 20260903021003 | 75 | 218 | 0.0 | 0.9 | 0.00 | 0.00 | 0.00 | 90 | 1017.3 |
| 20260903020024 | 76 | 218 | 0.0 | 0.9 | 0.00 | 0.00 | 0.00 | 90 | 1017.1 |
| 20260903015024 | 76 | 218 | 0.0 | 0.9 | 0.00 | 0.00 | 0.00 | 90 | 1017.1 |
| 20260903014003 | 76 | 0 | 0.0 | 0.0 | 0.00 | 0.00 | 0.00 | 89 | 1017.2 |
| 20260903013003 | 76 | 218 | 0.0 | 0.9 | 0.00 | 0.00 | 0.00 | 89 | 1017.4 |
| 20260903012003 | 76 | 0 | 0.0 | 0.0 | 0.00 | 0.00 | 0.00 | 89 | 1017.5 |
| 20260903011003 | 76 | 218 | 0.0 | 1.7 | 0.00 | 0.00 | 0.00 | 90 | 1017.7 |
| 20260903010045 | 76 | 218 | 0.0 | 1.7 | 0.00 | 0.00 | 0.00 | 89 | 1017.9 |
| 20260903005024 | 77 | 195 | 0.0 | 0.9 | 0.00 | 0.00 | 0.00 | 89 | 1017.5 |
| 20260903004003 | 77 | 178 | 0.0 | 1.7 | 0.00 | 0.00 | 0.00 | 88 | 1017.5 |
| 20260903003024 | 77 | 108 | 0.0 | 0.9 | 0.00 | 0.00 | 0.00 | 87 | 1017.5 |
| 20260903002024 | 77 | 107 | 0.0 | 0.9 | 0.00 | 0.00 | 0.00 | 87 | 1017.9 |
| 20260903001045 | 78 | 107 | 0.0 | 0.9 | 0.00 | 0.00 | 0.00 | 87 | 1017.9 |
| 20260903000003 | 78 | 0 | 0.0 | 0.0 | 0.00 | 0.00 | 0.00 | 87 | 1017.9 |
| 20260902235024 | 78 | 0 | 0.0 | 0.0 | 0.00 | 0.00 | 0.00 | 86 | 1017.9 |
| 20260902234003 | 78 | 0 | 0.0 | 0.0 | 0.00 | 0.00 | 0.00 | 86 | 1017.6 |
| 20260902233003 | 78 | 0 | 0.0 | 0.0 | 0.00 | 0.00 | 0.00 | 85 | 1017.5 |
| 20260902232024 | 78 | 107 | 0.0 | 0.9 | 0.00 | 0.00 | 0.00 | 84 | 1017.6 |
| 20260902231045 | 78 | 111 | 0.0 | 0.9 | 0.00 | 0.00 | 0.00 | 83 | 1017.9 |
| 20260902230024 | 79 | 111 | 0.0 | 1.7 | 0.00 | 0.00 | 0.00 | 83 | 1018.1 |
| 20260902225024 | 79 | 0 | 0.0 | 0.0 | 0.00 | 0.00 | 0.00 | 83 | 1018.0 |
| 20260902224024 | 79 | 111 | 0.0 | 2.6 | 0.00 | 0.00 | 0.00 | 83 | 1017.9 |
| 20260902223024 | 79 | 125 | 0.0 | 2.6 | 0.00 | 0.00 | 0.00 | 83 | 1018.0 |